Location: Nasgenstadt
(48.2786°N, 9.7553°E)
Time: 15:17:56
(UTC+02:00)

ISS - Pass Details

Date: 21 May 2021
Orbit: 419 x 422 km, 51.6° (Epoch: 25 June)

Event Time Altitude Azimuth Distance (km) Brightness Sun altitude
Rises 00:23:43 0° 289° (WNW) 2,374 0.5 -20.5°
Reaches altitude 10° 00:25:50 10° 293° (WNW) 1,509 -0.5 -20.6°
Maximum altitude 00:29:11 61° 14° (NNE) 485 -3.3 -20.7°
Enters shadow 00:29:49 49° 64° (ENE) 552 -3.2 -20.7°
